This is the latest recevied weather packets stored in our database for station/object K4DFD-13. If no packets are shown the sender has not sent any weather packets the latest 10 day(s).
| Time | Temp. | Humidity | Pressure | Rain* | Wind** | Luminosity | Snow |
|---|---|---|---|---|---|---|---|
| 1777397840 | 18.33° C | 75% | 1017.9 hPa | 0 mm | - | - | - |
| 1777397540 | 17.78° C | 77% | 1017.9 hPa | 0 mm | - | - | - |
| 1777397239 | 17.78° C | 78% | 1018.2 hPa | 0 mm | - | - | - |
| 1777396939 | 17.78° C | 77% | 1018.4 hPa | 0 mm | - | - | - |
| 1777396639 | 17.78° C | 77% | 1018.6 hPa | 0 mm | - | - | - |
| 1777396338 | 17.78° C | 77% | 1018.5 hPa | 0 mm | - | - | - |
| 1777396037 | 17.22° C | 78% | 1018.6 hPa | 0 mm | - | - | - |
| 1777395737 | 17.22° C | 80% | 1018.8 hPa | 0 mm | - | - | - |
| 1777395436 | 17.22° C | 77% | 1018.7 hPa | 0 mm | - | - | - |
| 1777395136 | 17.22° C | 78% | 1018.6 hPa | 0 mm | - | - | - |
| 1777394836 | 16.67° C | 78% | 1018.8 hPa | 0 mm | - | - | - |
| 1777394535 | 16.67° C | 77% | 1018.8 hPa | 0 mm | - | - | - |
| 1777394235 | 16.67° C | 79% | 1018.9 hPa | 0 mm | - | - | - |
| 1777393934 | 16.67° C | 80% | 1019.1 hPa | 0 mm | - | - | - |
| 1777393634 | 16.11° C | 80% | 1019.2 hPa | 0 mm | - | - | - |
| 1777393334 | 16.11° C | 80% | 1019.2 hPa | 0 mm | - | - | - |
| 1777393033 | 16.11° C | 79% | 1019.2 hPa | 0 mm | - | - | - |
| 1777392733 | 16.11° C | 79% | 1019.1 hPa | 0 mm | - | - | - |
| 1777392433 | 15.56° C | 81% | 1019 hPa | 0 mm | - | - | - |
| 1777392132 | 15.56° C | 81% | 1019.2 hPa | 0 mm | - | - | - |
| 1777391832 | 15.56° C | 81% | 1019.2 hPa | 0 mm | - | - | - |
| 1777391531 | 15.56° C | 81% | 1019.4 hPa | 0 mm | - | - | - |
| 1777391231 | 16.11° C | 78% | 1019.2 hPa | 0 mm | - | - | - |
| 1777390931 | 15.56° C | 82% | 1019.2 hPa | 0 mm | - | - | - |
| 1777390630 | 15.56° C | 83% | 1019.1 hPa | 0 mm | - | - | - |
* Rain latest hour (hover to see other rain measurements)
** Current wind speed in m/s (hover to see current wind gust speed)